N2PPN Weather Reports


time (UTC)temp
C
wind
direction
speed
KPH
gust
KPH
rain 1hr
cm
rain 24hr
cm
rain mn
cm
humidity
%
barometer
mb
20260502130636 11 79 0.0 0.0 0.00 0.03 0.03 86 1015.5
20260502130134 11 57 0.0 0.0 0.00 0.03 0.03 86 1015.4
20260502123620 11 56 1.6 3.2 0.00 0.03 0.03 90 1015.3
20260502123116 10 27 0.0 0.0 0.00 0.03 0.03 91 1015.3
20260502122613 10 56 0.0 0.0 0.00 0.03 0.03 93 1015.2
20260502122109 10 48 0.0 0.0 0.00 0.03 0.03 93 1015.2
20260502121607 10 37 0.0 0.0 0.00 0.03 0.03 94 1015.0
20260502121059 10 78 0.0 0.0 0.00 0.03 0.03 94 1015.0
20260502120555 10 48 0.0 0.0 0.00 0.03 0.03 95 1015.2
20260502115550 10 61 0.0 0.0 0.00 0.03 0.03 95 1015.2
20260502115045 10 62 0.0 0.0 0.00 0.03 0.03 95 1015.4
20260502114542 10 57 0.0 0.0 0.00 0.03 0.03 95 1015.3
20260502114039 10 7 0.0 0.0 0.00 0.03 0.03 95 1015.1
20260502113537 10 269 3.2 4.8 0.00 0.03 0.03 95 1015.2
20260502113035 10 59 0.0 0.0 0.00 0.03 0.03 95 1015.1
20260502112533 10 130 0.0 0.0 0.00 0.03 0.03 95 1014.9
20260502112030 10 117 0.0 0.0 0.00 0.03 0.03 95 1014.8
20260502111527 10 112 1.6 1.6 0.00 0.03 0.03 95 1015.0
20260502111025 10 95 0.0 0.0 0.00 0.03 0.03 95 1014.9
20260502110522 10 94 0.0 0.0 0.00 0.03 0.03 95 1014.7
20260502110020 10 89 0.0 0.0 0.00 0.03 0.03 95 1014.4
20260502105517 10 66 0.0 1.6 0.00 0.03 0.03 95 1014.4
20260502105014 10 96 3.2 3.2 0.13 0.03 0.03 94 1014.6
20260502104511 10 139 3.2 3.2 0.13 0.03 0.03 93 1014.6
20260502104009 10 59 0.0 0.0 0.00 0.00 0.00 92 1014.5
20260502103506 10 64 0.0 0.0 0.00 0.00 0.00 91 1014.9
20260502103004 10 89 0.0 0.0 0.00 0.00 0.00 91 1014.8
20260502102500 10 73 0.0 0.0 0.00 0.00 0.00 90 1015.0
20260502101956 10 65 0.0 0.0 0.00 0.00 0.00 90 1014.7
20260502101455 10 126 0.0 0.0 0.00 0.00 0.00 90 1014.9
20260502100953 10 91 0.0 0.0 0.00 0.00 0.00 89 1014.8
20260502100452 10 286 3.2 4.8 0.00 0.00 0.00 89 1015.0
20260502091426 10 232 3.2 4.8 0.00 0.00 0.00 87 1014.4
20260502090923 10 186 4.8 4.8 0.00 0.00 0.00 87 1014.5
20260502090420 10 86 3.2 4.8 0.00 0.00 0.00 86 1014.7
20260502071315 10 199 6.4 6.4 0.00 0.00 0.00 87 1015.0
20260502070813 10 193 4.8 6.4 0.00 0.00 0.00 87 1015.0
20260502070310 10 197 3.2 4.8 0.00 0.00 0.00 87 1014.9
20260502065809 10 233 6.4 9.7 0.00 0.00 0.00 87 1015.0
20260502065307 10 219 3.2 4.8 0.00 0.00 0.00 87 1014.9
20260502064804 10 262 4.8 4.8 0.00 0.00 0.00 87 1015.0
20260502064302 10 272 4.8 6.4 0.00 0.00 0.00 86 1015.0
20260502063759 10 241 8.0 11.3 0.00 0.00 0.00 86 1015.1
20260502063258 10 205 4.8 4.8 0.00 0.00 0.00 86 1014.8
20260502062754 10 227 4.8 6.4 0.00 0.00 0.00 85 1014.8
20260502062251 10 174 6.4 6.4 0.00 0.00 0.00 84 1015.1
20260502061750 10 156 3.2 4.8 0.00 0.00 0.00 84 1015.0
20260502061248 10 184 3.2 4.8 0.00 0.00 0.00 84 1015.0
20260502060747 10 152 1.6 3.2 0.00 0.00 0.00 84 1015.5
20260502060243 10 236 4.8 6.4 0.00 0.00 0.00 84 1015.5
20260502055742 10 185 3.2 3.2 0.00 0.00 0.00 84 1015.5
20260502055239 10 147 1.6 3.2 0.00 0.00 0.00 84 1015.2
20260502054738 10 110 1.6 1.6 0.00 0.00 0.00 84 1015.3
20260502054235 10 110 0.0 1.6 0.00 0.00 0.00 83 1015.0
20260502053733 10 111 0.0 0.0 0.00 0.00 0.00 83 1014.9
20260502053229 10 197 3.2 3.2 0.00 0.00 0.00 82 1014.9
20260502052727 10 215 6.4 9.7 0.00 0.00 0.00 82 1015.0
20260502052225 10 191 6.4 6.4 0.00 0.00 0.00 81 1014.8
20260502051723 10 224 4.8 4.8 0.00 0.00 0.00 81 1015.0
20260502051221 11 194 6.4 9.7 0.00 0.00 0.00 80 1014.8
20260502050717 11 194 4.8 6.4 0.00 0.00 0.00 79 1015.1
20260502050214 11 191 3.2 4.8 0.00 0.00 0.00 78 1015.3
20260502045711 11 163 0.0 1.6 0.00 0.00 0.00 77 1015.2
20260502045208 11 144 0.0 0.0 0.00 0.00 0.00 77 1014.9
20260502044704 11 149 1.6 1.6 0.00 0.00 0.00 76 1015.1
20260502044200 11 243 0.0 3.2 0.00 0.00 0.00 77 1015.2
20260502043658 11 168 1.6 3.2 0.00 0.00 0.00 77 1015.2
20260502043156 11 155 1.6 1.6 0.00 0.00 0.00 77 1015.2
20260502042655 11 166 1.6 3.2 0.00 0.00 0.00 76 1015.2
20260502042152 11 246 6.4 6.4 0.00 0.00 0.00 76 1015.1
20260502041650 11 95 3.2 4.8 0.00 0.00 0.00 76 1015.4
20260502041147 11 234 4.8 6.4 0.00 0.00 0.00 76 1015.6
20260502040644 11 178 4.8 4.8 0.00 0.00 0.00 75 1015.4
20260502040141 11 176 4.8 4.8 0.00 0.00 0.00 75 1015.2
20260502035637 11 264 6.4 11.3 0.00 0.00 0.00 75 1015.5
20260502035134 11 253 11.3 12.9 0.00 0.00 0.00 75 1015.2
20260502034632 11 168 1.6 3.2 0.00 0.00 0.00 77 1015.1
20260502034130 11 199 4.8 6.4 0.00 0.00 0.00 78 1015.1
20260502033628 11 211 6.4 11.3 0.00 0.00 0.00 78 1014.9
20260502033125 11 134 3.2 3.2 0.00 0.00 0.00 79 1015.2
20260502032621 11 218 4.8 6.4 0.00 0.00 0.00 79 1015.3
20260502032118 10 279 8.0 11.3 0.00 0.00 0.00 80 1015.3
20260502031615 10 192 6.4 6.4 0.00 0.00 0.00 81 1015.3
20260502031113 10 186 6.4 9.7 0.00 0.00 0.00 82 1015.6
20260502030612 10 211 8.0 9.7 0.00 0.00 0.00 82 1015.5
20260502030110 10 194 6.4 6.4 0.00 0.00 0.00 83 1015.4
20260502025606 10 278 6.4 6.4 0.00 0.00 0.00 83 1015.6
20260502025105 10 222 8.0 9.7 0.00 0.00 0.00 83 1015.7
20260502024602 10 234 8.0 14.5 0.00 0.00 0.00 84 1015.7
20260502024100 10 281 3.2 4.8 0.00 0.00 0.00 84 1015.7
20260502023557 10 290 4.8 6.4 0.00 0.00 0.00 83 1015.8
20260502023054 10 217 11.3 14.5 0.00 0.00 0.00 83 1015.7
20260502022551 10 211 9.7 14.5 0.00 0.00 0.00 83 1015.6
20260502022049 10 210 3.2 4.8 0.00 0.00 0.00 83 1015.7
20260502021546 10 249 6.4 9.7 0.00 0.00 0.00 83 1015.7
20260502021043 10 251 6.4 9.7 0.00 0.00 0.00 83 1015.7
20260502020540 10 225 1.6 4.8 0.00 0.00 0.00 83 1015.8
20260502020037 10 226 6.4 9.7 0.00 0.00 0.00 83 1015.5
20260502015535 10 219 9.7 12.9 0.00 0.00 0.00 83 1015.7
20260502015031 10 206 8.0 11.3 0.00 0.00 0.00 82 1015.6
20260502014528 10 222 11.3 12.9 0.00 0.00 0.00 82 1015.7
20260502014025 10 167 6.4 9.7 0.00 0.00 0.00 82 1015.6
20260502013520 10 225 9.7 12.9 0.00 0.00 0.00 81 1015.4
20260502013017 10 138 3.2 6.4 0.00 0.00 0.00 80 1015.5
20260502012515 10 228 4.8 6.4 0.00 0.00 0.00 80 1015.2
20260502012012 10 203 12.9 14.5 0.00 0.00 0.00 79 1015.5
20260502011508 10 237 9.7 14.5 0.00 0.00 0.00 78 1015.2
20260502011005 10 241 9.7 12.9 0.00 0.00 0.00 77 1015.1
20260502010503 11 235 8.0 11.3 0.00 0.00 0.00 76 1015.2
20260502005958 11 144 0.0 1.6 0.00 0.00 0.00 75 1015.1
20260502005456 11 194 14.5 16.1 0.00 0.00 0.00 74 1015.1
20260502004954 11 164 8.0 12.9 0.00 0.00 0.00 73 1015.2
20260502004449 11 186 3.2 3.2 0.00 0.00 0.00 73 1015.3
20260502003947 11 206 6.4 6.4 0.00 0.00 0.00 72 1015.2
20260502003444 11 234 6.4 6.4 0.00 0.00 0.00 72 1014.8
20260502002940 11 219 12.9 17.7 0.00 0.00 0.00 72 1015.1
20260502002437 11 205 9.7 12.9 0.00 0.00 0.00 72 1015.3
20260502001935 11 215 8.0 11.3 0.00 0.00 0.00 75 1015.2
20260502001432 11 230 8.0 9.7 0.00 0.00 0.00 76 1015.0
20260502000930 11 238 9.7 12.9 0.00 0.00 0.00 76 1015.2
20260502000428 11 216 3.2 3.2 0.00 0.00 0.00 77 1014.8
20260501235924 11 160 6.4 11.3 0.00 0.00 0.00 77 1014.8
20260501235420 11 228 4.8 6.4 0.00 0.00 0.00 77 1014.7
20260501234915 11 179 6.4 9.7 0.00 0.00 0.00 77 1014.7
20260501234412 11 227 9.7 11.3 0.00 0.00 0.00 76 1014.7
20260501233911 11 206 6.4 11.3 0.00 0.00 0.00 76 1014.7
20260501233408 11 236 6.4 11.3 0.00 0.00 0.00 75 1015.0
20260501232903 11 157 4.8 6.4 0.00 0.00 0.00 74 1014.8
20260501232401 11 227 6.4 9.7 0.00 0.00 0.00 73 1014.5
20260501231858 11 221 11.3 12.9 0.00 0.00 0.00 73 1014.5
20260501231356 11 202 9.7 12.9 0.00 0.00 0.00 72 1014.4
20260501230854 11 218 14.5 17.7 0.00 0.00 0.00 71 1014.7
20260501230353 11 189 4.8 6.4 0.00 0.00 0.00 71 1014.3
20260501225849 12 157 4.8 4.8 0.00 0.00 0.00 70 1014.4
20260501225347 12 238 4.8 6.4 0.00 0.00 0.00 70 1014.4
20260501224843 12 229 6.4 9.7 0.00 0.00 0.00 70 1014.5
20260501224341 12 240 9.7 12.9 0.00 0.00 0.00 69 1014.4
20260501223837 12 242 16.1 17.7 0.00 0.00 0.00 70 1014.4
20260501223333 12 212 12.9 16.1 0.00 0.00 0.00 70 1014.4
20260501222829 12 229 11.3 12.9 0.00 0.00 0.00 70 1014.5
20260501222326 12 207 14.5 16.1 0.00 0.00 0.00 68 1014.6
20260501221823 12 205 14.5 17.7 0.00 0.00 0.00 68 1014.7
20260501221320 12 192 4.8 6.4 0.00 0.00 0.00 68 1014.5
20260501220818 12 247 8.0 12.9 0.00 0.00 0.00 68 1014.5
20260501220315 12 198 14.5 20.9 0.00 0.00 0.00 67 1014.4
20260501215812 12 170 12.9 20.9 0.00 0.00 0.00 67 1014.5
20260501215307 12 221 17.7 22.5 0.00 0.00 0.00 66 1014.6
20260501214803 12 157 20.9 27.4 0.00 0.00 0.00 65 1014.5
20260501214259 12 185 16.1 22.5 0.00 0.00 0.00 65 1014.6
20260501213755 12 248 17.7 25.7 0.00 0.00 0.00 64 1014.3
20260501213252 13 222 14.5 17.7 0.00 0.00 0.00 63 1014.3
20260501212748 13 205 14.5 17.7 0.00 0.00 0.00 62 1014.3
20260501212244 13 235 8.0 11.3 0.00 0.00 0.00 62 1014.2
20260501211742 13 202 11.3 12.9 0.00 0.00 0.00 60 1014.5
20260501211238 13 204 16.1 17.7 0.00 0.00 0.00 59 1014.4
20260501210736 13 200 9.7 12.9 0.00 0.00 0.00 59 1014.2
20260501210232 13 230 16.1 22.5 0.00 0.00 0.00 58 1014.5
20260501205729 13 221 12.9 14.5 0.00 0.00 0.00 58 1014.5
20260501205225 13 220 22.5 25.7 0.00 0.00 0.00 57 1014.2
20260501204723 13 207 11.3 14.5 0.00 0.00 0.00 57 1014.2
20260501204220 14 226 14.5 16.1 0.00 0.00 0.00 54 1014.1
20260501203715 15 206 20.9 25.7 0.00 0.00 0.00 52 1014.1
20260501203213 15 221 9.7 12.9 0.00 0.00 0.00 50 1014.2
20260501202710 15 196 12.9 16.1 0.00 0.00 0.00 47 1013.9
20260501202207 15 236 12.9 16.1 0.00 0.00 0.00 48 1013.8
20260501201704 15 207 12.9 16.1 0.00 0.00 0.00 48 1013.9
20260501201200 15 254 6.4 12.9 0.00 0.00 0.00 48 1014.1
20260501200657 15 224 16.1 17.7 0.00 0.00 0.00 48 1014.2
20260501200155 15 211 14.5 17.7 0.00 0.00 0.00 50 1013.8
20260501195652 15 182 17.7 24.1 0.00 0.00 0.00 49 1014.0
20260501195148 16 228 12.9 16.1 0.00 0.00 0.00 52 1014.0
20260501194643 16 287 1.6 4.8 0.00 0.00 0.00 48 1013.7
20260501194139 17 181 12.9 16.1 0.00 0.00 0.00 45 1013.6
20260501193636 17 257 6.4 6.4 0.00 0.00 0.00 43 1013.8
20260501193135 16 274 8.0 11.3 0.00 0.00 0.00 43 1014.3
20260501192632 16 192 3.2 3.2 0.00 0.00 0.00 43 1014.0
20260501192129 17 246 12.9 20.9 0.00 0.00 0.00 43 1014.0
20260501191626 16 219 11.3 14.5 0.00 0.00 0.00 42 1014.1
20260501191123 16 230 4.8 9.7 0.00 0.00 0.00 43 1014.1
20260501190620 16 267 1.6 1.6 0.00 0.00 0.00 41 1014.4
20260501190115 17 33 4.8 9.7 0.00 0.00 0.00 40 1014.3
20260501185611 16 1 3.2 6.4 0.00 0.00 0.00 43 1014.5
20260501185107 16 199 0.0 1.6 0.00 0.00 0.00 43 1014.5
20260501184603 16 284 4.8 6.4 0.00 0.00 0.00 45 1014.5
20260501184058 16 327 4.8 9.7 0.00 0.00 0.00 44 1014.4
20260501183555 17 339 3.2 9.7 0.00 0.00 0.00 42 1014.6
20260501183051 15 161 9.7 12.9 0.00 0.00 0.00 45 1014.5
20260501182548 16 207 14.5 20.9 0.00 0.00 0.00 44 1014.6
20260501182045 16 230 9.7 14.5 0.00 0.00 0.00 46 1014.5
20260501181542 16 260 11.3 16.1 0.00 0.00 0.00 45 1014.5
20260501181039 16 230 11.3 16.1 0.00 0.00 0.00 44 1014.6
20260501180537 17 259 6.4 9.7 0.00 0.00 0.00 39 1014.6
20260501180033 17 297 6.4 11.3 0.00 0.00 0.00 37 1014.7
20260501175529 17 340 1.6 1.6 0.00 0.00 0.00 36 1014.8
20260501175026 16 351 3.2 4.8 0.00 0.00 0.00 37 1014.6
20260501174524 15 332 0.0 0.0 0.00 0.00 0.00 38 1014.8
20260501174021 16 244 6.4 9.7 0.00 0.00 0.00 38 1014.8
20260501173518 16 56 6.4 12.9 0.00 0.00 0.00 38 1015.0
20260501173015 15 31 3.2 3.2 0.00 0.00 0.00 38 1014.9
20260501172510 16 23 4.8 6.4 0.00 0.00 0.00 38 1014.8
20260501172006 16 277 4.8 6.4 0.00 0.00 0.00 38 1015.4
20260501171503 15 241 3.2 6.4 0.00 0.00 0.00 39 1014.8
20260501170959 15 4 1.6 3.2 0.00 0.00 0.00 38 1015.2
20260501170456 16 288 3.2 4.8 0.00 0.00 0.00 38 1015.0
20260501165953 16 227 1.6 4.8 0.00 0.00 0.00 41 1015.1
20260501165451 14 124 0.0 0.0 0.00 0.00 0.00 40 1015.1
20260501164948 15 22 8.0 11.3 0.00 0.00 0.00 41 1015.4
20260501164446 15 24 3.2 6.4 0.00 0.00 0.00 39 1015.2
20260501163943 15 348 6.4 6.4 0.00 0.00 0.00 41 1015.2
20260501163438 15 3 3.2 4.8 0.00 0.00 0.00 38 1015.3
20260501162936 15 283 3.2 4.8 0.00 0.00 0.00 39 1015.5
20260501162432 15 15 0.0 1.6 0.00 0.00 0.00 39 1015.4
20260501161929 15 38 0.0 1.6 0.00 0.00 0.00 41 1015.8
20260501161426 15 344 4.8 9.7 0.00 0.00 0.00 40 1015.5
20260501160922 14 42 1.6 4.8 0.00 0.00 0.00 40 1015.8
20260501160419 14 58 3.2 4.8 0.00 0.00 0.00 41 1015.6
20260501155917 14 42 0.0 0.0 0.00 0.00 0.00 42 1015.8
20260501155414 14 38 1.6 4.8 0.00 0.00 0.00 41 1015.8
20260501154910 15 34 1.6 4.8 0.00 0.00 0.00 41 1016.1
20260501154408 14 17 4.8 6.4 0.00 0.00 0.00 41 1015.8
20260501153905 14 358 8.0 9.7 0.00 0.00 0.00 42 1015.9
20260501153403 15 264 3.2 6.4 0.00 0.00 0.00 43 1016.1
20260501152857 15 252 1.6 4.8 0.00 0.00 0.00 45 1016.1
20260501152355 13 16 6.4 6.4 0.00 0.00 0.00 48 1016.1
20260501151853 13 35 0.0 0.0 0.00 0.00 0.00 48 1016.0
20260501151349 13 338 1.6 3.2 0.00 0.00 0.00 47 1016.0
20260501150845 13 332 11.3 12.9 0.00 0.00 0.00 46 1016.0
20260501150341 13 344 3.2 4.8 0.00 0.00 0.00 48 1016.0
20260501145838 13 34 0.0 0.0 0.00 0.00 0.00 47 1015.9
20260501145335 13 47 12.9 14.5 0.00 0.00 0.00 45 1015.9
20260501144832 12 8 3.2 4.8 0.00 0.00 0.00 46 1015.7
20260501144327 13 53 0.0 0.0 0.00 0.00 0.00 47 1015.8
20260501143824 12 49 0.0 1.6 0.00 0.00 0.00 50 1016.2
20260501143321 12 34 4.8 6.4 0.00 0.00 0.00 49 1015.9
20260501142818 12 43 1.6 3.2 0.00 0.00 0.00 51 1015.9
20260501142314 12 36 4.8 4.8 0.00 0.00 0.00 51 1015.9
20260501141810 12 6 9.7 11.3 0.00 0.00 0.00 51 1015.8